[[{"header":{"parameterUnit":"m.s-1","parameterCategory":1,"la1":30.2991,"la2":30.254,"lo1":-89.0895,"lo2":-89.0444,"dy":0.0017,"dx":0.0017,"nx":28,"ny":28,"refTime":"2023-11-11T09:00:00:Z","depth":0,"parameterNumber":2,"parameterNumberName":"U-component_of_WINDS"},"data":[0,0,0,0,0,0,0,0,0,0,0,0,0,0,0,0,0,0,0,0,0,0,0,0,0,0,0,0,0,0,0,0,0,0,0,0,0,0,0,0,0,0,0,0,0,0,0,0,0,0,0,0,0,0,0,0,0,0,-1.8202,-1.8202,0,-1.8229,-1.8229,-1.823,-1.8177,-1.8175,-1.8173,-1.8172,-1.82,-1.8202,-1.8205,0,0,0,0,0,0,0,0,0,0,0,0,0,-1.8104,-1.8106,-1.8202,-1.8202,-1.8203,-1.8229,-1.8229,-1.823,-1.8177,-1.8175,-1.8173,-1.8171,-1.8199,-1.8202,-1.8205,0,0,0,0,0,0,0,0,0,0,0,0,0,-1.8141,-1.8107,-1.8202,-1.8179,-1.8178,-1.8229,-1.8229,-1.823,-1.8177,-1.8175,-1.8172,-1.817,-1.8198,-1.8202,-1.8205,-1.828,0,0,-1.8216,-1.8218,0,0,0,0,0,0,0,0,-1.8139,-1.8144,-1.8182,-1.8181,-1.8179,-1.8197,-1.8205,-1.8247,-1.8178,-1.8178,-1.8171,-1.8168,-1.8201,-1.8204,-1.8215,-1.8281,-1.8282,-1.8216,-1.8219,-1.822,-1.8221,0,0,0,0,0,0,0,-1.8136,-1.8143,-1.8213,-1.8183,-1.8181,-1.8168,-1.817,-1.8213,-1.8204,-1.8177,-1.8174,-1.8178,-1.82,-1.8212,-1.8215,-1.8283,-1.8216,-1.822,-1.8222,-1.8223,-1.8412,-1.8414,0,0,0,0,0,0,-1.8137,-1.8141,-1.8212,-1.8213,-1.8152,-1.8172,-1.8174,-1.8194,-1.8203,-1.8202,-1.818,-1.8175,-1.8207,-1.8211,-1.8216,-1.8305,-1.822,-1.8223,-1.8226,-1.8409,-1.8412,-1.8415,0,0,0,0,0,0,-1.8135,-1.8143,-1.8211,-1.8176,-1.8184,-1.8176,-1.8199,-1.8196,-1.8208,-1.8205,-1.8203,-1.8194,-1.8205,-1.8211,-1.8264,-1.8305,-1.8225,-1.8228,-1.8406,-1.841,-1.8414,-1.8483,0,0,0,0,0,0,-1.8132,-1.8143,-1.8171,-1.8177,-1.8186,-1.8259,-1.8201,-1.8198,-1.8214,-1.8208,-1.8218,-1.8217,-1.8203,-1.8259,-1.8268,-1.8309,-1.8231,-1.8402,-1.8408,-1.8413,-1.8477,-1.8489,-1.8499,0,0,0,0,0,-1.8129,-1.8189,-1.8173,-1.8182,-1.8221,-1.8261,-1.8266,-1.825,-1.8217,-1.8246,-1.8244,-1.8216,-1.8299,-1.8265,-1.8275,-1.8317,-1.8399,-1.8406,-1.8412,-1.8472,-1.8486,-1.8499,0,0,0,0,0,0,-1.8189,-1.819,-1.8172,-1.8236,-1.8249,-1.8252,-1.8288,-1.8265,-1.8288,-1.8281,-1.826,-1.8262,-1.832,-1.8323,-1.8286,-1.839,-1.8344,-1.8352,-1.8386,-1.84,-1.8411,-1.8409,-1.8234,0,0,0,0,0,-1.8209,-1.8242,-1.8241,-1.8298,-1.8305,-1.8295,-1.8312,-1.8298,-1.8311,-1.8316,-1.8318,-1.8331,-1.836,-1.838,-1.8406,-1.8476,-1.8478,-1.851,-1.8521,-1.853,-1.8538,-1.8577,-1.8591,-1.8437,-1.8437,-1.8436,0,0,-1.8252,-1.8257,-1.8279,-1.831,-1.8318,-1.8353,-1.83,-1.8339,-1.8364,-1.8322,-1.8373,-1.8374,-1.8388,-1.845,-1.8478,-1.8455,-1.8581,-1.8538,-1.8546,-1.8549,-1.8585,-1.8599,-1.8612,-1.8441,-1.844,-1.844,0,0,-1.8349,-1.8355,-1.8404,-1.8413,-1.8426,-1.8419,-1.8431,-1.8438,-1.8437,-1.8488,-1.8457,-1.8486,-1.8537,-1.8548,-1.856,-1.866,-1.8636,-1.8669,-1.8728,-1.8766,-1.8778,-1.8789,-1.8826,-1.8839,-1.8677,-1.8677,-1.8677,0,-1.8401,-1.8452,-1.8432,-1.8472,-1.8487,-1.845,-1.8499,-1.8509,-1.8531,-1.8542,-1.8515,-1.8578,-1.8584,-1.8649,-1.8673,-1.8684,-1.8697,-1.8669,-1.8778,-1.8788,-1.8798,-1.8833,-1.8847,-1.8681,-1.8681,-1.868,-1.868,0,-1.8516,-1.8551,-1.8588,-1.861,-1.8629,-1.8674,-1.8661,-1.8682,-1.8666,-1.8662,-1.8714,-1.872,-1.8748,-1.8762,-1.8747,-1.8825,-1.881,-1.8781,-1.8735,-1.8817,-1.885,-1.8863,-1.8687,-1.8686,-1.8684,-1.8683,0,0,-1.8652,-1.8662,-1.8676,-1.8686,-1.8697,-1.8724,-1.8767,-1.8794,-1.8813,-1.8828,-1.8865,-1.8908,-1.8881,-1.8895,-1.888,-1.8913,-1.8993,-1.888,-1.888,-1.8902,-1.9081,-1.9104,-1.912,-1.8977,-1.8979,-1.8981,-1.908,0,-1.8749,-1.8823,-1.8806,-1.888,-1.8913,-1.8878,-1.8915,-1.8926,-1.8923,-1.8951,-1.8947,-1.8979,-1.894,-1.8949,-1.8979,-1.8977,-1.9029,-1.8969,-1.9011,-1.9013,-1.9011,-1.9137,-1.9161,-1.9255,-1.9093,-1.9095,-1.9097,0,-1.8872,-1.8893,-1.897,-1.8976,-1.8989,-1.9024,-1.9047,-1.9073,-1.9085,-1.908,-1.9096,-1.9075,-1.9118,-1.907,-1.9129,-1.9089,-1.9104,-1.9106,-1.9109,-1.9114,-1.9061,-1.9147,-1.9284,-1.9299,-1.9116,-1.9115,-1.9113,0,-1.8966,-1.9013,-1.9065,-1.9074,-1.9082,-1.9107,-1.9112,-1.9121,-1.9138,-1.9158,-1.9169,-1.9194,-1.9208,-1.9228,-1.9214,-1.918,-1.9276,-1.9227,-1.9275,-1.9275,-1.9298,-1.9297,-1.9442,-1.9305,-1.9305,-1.9305,-1.9305,0,-1.9077,-1.9126,-1.9107,-1.914,-1.9193,-1.9173,-1.9227,-1.9227,-1.9236,-1.9268,-1.9238,-1.9269,-1.9248,-1.9277,-1.9266,-1.9318,-1.9324,-1.9322,-1.9319,-1.9326,-1.9326,-1.9337,-1.9331,-1.9309,-1.9308,-1.9307,-1.9306,0,-1.9192,-1.9181,-1.9236,-1.9239,-1.9241,-1.9281,-1.9284,-1.9314,-1.9308,-1.9349,-1.9357,-1.9349,-1.9381,-1.9369,-1.9404,-1.9397,-1.9463,-1.945,-1.9459,-1.9457,-1.9506,-1.9502,-1.9664,-1.9685,-1.9533,-1.9535,-1.9536,0,-1.9264,-1.9301,-1.9308,-1.9328,-1.9335,-1.9366,-1.9383,-1.9364,-1.9383,-1.94,-1.9428,-1.9458,-1.9481,-1.9535,-1.9532,-1.9558,-1.9547,-1.9602,-1.9551,-1.9557,-1.955,-1.9549,-1.9553,-1.9613,-1.9615,-1.9616,-1.9618,0,-1.9395,-1.9387,-1.9414,-1.9438,-1.946,-1.9478,-1.9494,-1.9511,-1.9493,-1.9516,-1.9549,-1.9567,-1.9602,-1.9633,-1.9656,-1.9661,-1.9637,-1.9633,-1.9646,-1.9654,-1.9659,-1.9659,-1.9489,-1.963,-1.9629,-1.9628,-1.9627,-1.9627,-1.9492,-1.9523,-1.9533,-1.9563,-1.9573,-1.9588,-1.9617,-1.9615,-1.9642,-1.9669,-1.9656,-1.9695,-1.9705,-1.9735,-1.9743,-1.9773,-1.9751,-1.9769,-1.9774,-1.978,-1.9787,-1.9652,-1.9777,-1.9776,-1.9776,-1.9776,-1.9775,0,-1.9622,-1.9626,-1.9654,-1.9677,-1.9701,-1.9675,-1.9691,-1.9713,-1.9747,-1.9759,-1.9782,-1.982,-1.985,-1.9849,-1.9876,-1.99,-1.989,-1.9908,-1.9907,-1.9909,-1.9803,-1.979,-1.9916,-1.9916,-1.9916,-1.9916,-1.9916,-1.9916,-1.9693,-1.9745,-1.9739,-1.9795,-1.9799,-1.9836,-1.9848,-1.9862,-1.9871,-1.9915,-1.994,-1.9938,-1.9945,-1.9973,-1.9998,-1.9997,-2.0009,-2.0032,-2.0027,-1.993,-1.9916,-1.9903,-1.989,-2.0035,-2.0035,-2.013,-2.0131,-2.0132]},{"header":{"parameterUnit":"m.s-1","parameterCategory":1,"la1":30.2991,"la2":30.254,"lo1":-89.0895,"lo2":-89.0444,"dy":0.0017,"dx":0.0017,"nx":28,"ny":28,"refTime":"2023-11-11T09:00:00:Z","depth":0,"parameterNumber":3,"parameterNumberName":"V-component_of_WINDS"},"data":[0,0,0,0,0,0,0,0,0,0,0,0,0,0,0,0,0,0,0,0,0,0,0,0,0,0,0,0,0,0,0,0,0,0,0,0,0,0,0,0,0,0,0,0,0,0,0,0,0,0,0,0,0,0,0,0,0,0,-4.0735,-4.0735,0,-4.0767,-4.0767,-4.0768,-4.0735,-4.0733,-4.0732,-4.0731,-4.0761,-4.0762,-4.0764,0,0,0,0,0,0,0,0,0,0,0,0,0,-4.064,-4.0642,-4.0735,-4.0735,-4.0735,-4.0767,-4.0767,-4.0768,-4.0735,-4.0733,-4.0732,-4.073,-4.076,-4.0762,-4.0765,0,0,0,0,0,0,0,0,0,0,0,0,0,-4.0678,-4.0643,-4.0734,-4.0723,-4.0722,-4.0767,-4.0767,-4.0768,-4.0735,-4.0733,-4.0731,-4.0729,-4.0759,-4.0762,-4.0765,-4.0822,0,0,-4.0774,-4.0775,0,0,0,0,0,0,0,0,-4.0676,-4.0681,-4.0724,-4.0724,-4.0723,-4.0745,-4.0745,-4.0786,-4.0736,-4.073,-4.0731,-4.0729,-4.0757,-4.076,-4.077,-4.0823,-4.0824,-4.0774,-4.0776,-4.0777,-4.0778,0,0,0,0,0,0,0,-4.0673,-4.068,-4.0747,-4.0725,-4.0724,-4.0715,-4.0718,-4.0753,-4.0754,-4.073,-4.0728,-4.0733,-4.0756,-4.0767,-4.077,-4.0825,-4.0774,-4.0777,-4.0779,-4.078,-4.0925,-4.0927,0,0,0,0,0,0,-4.0672,-4.0678,-4.0746,-4.0748,-4.0694,-4.0718,-4.0722,-4.074,-4.0753,-4.0753,-4.0734,-4.0731,-4.0763,-4.0767,-4.0771,-4.0838,-4.0777,-4.078,-4.0782,-4.0923,-4.0926,-4.0928,0,0,0,0,0,0,-4.0671,-4.0679,-4.0745,-4.0712,-4.072,-4.0722,-4.0742,-4.0741,-4.0752,-4.0756,-4.0756,-4.0746,-4.0762,-4.0767,-4.0809,-4.0839,-4.0781,-4.0784,-4.0921,-4.0924,-4.0927,-4.0973,0,0,0,0,0,0,-4.0668,-4.0678,-4.0701,-4.0713,-4.0722,-4.0784,-4.0744,-4.0743,-4.0758,-4.0754,-4.0767,-4.0767,-4.076,-4.0805,-4.0812,-4.0842,-4.0786,-4.0918,-4.0922,-4.0926,-4.0969,-4.0977,-4.0984,0,0,0,0,0,-4.0665,-4.0712,-4.0702,-4.0711,-4.075,-4.0786,-4.0791,-4.0783,-4.0761,-4.0783,-4.0785,-4.0766,-4.0834,-4.081,-4.0818,-4.0848,-4.0916,-4.0921,-4.0926,-4.0965,-4.0976,-4.0984,0,0,0,0,0,0,-4.0702,-4.0713,-4.0703,-4.0756,-4.077,-4.078,-4.0808,-4.0794,-4.0815,-4.081,-4.0799,-4.0802,-4.0847,-4.0852,-4.0824,-4.0904,-4.0871,-4.0878,-4.0899,-4.0909,-4.0916,-4.0914,-4.0789,0,0,0,0,0,-4.0716,-4.0745,-4.0753,-4.0799,-4.0807,-4.0806,-4.0821,-4.0814,-4.0828,-4.0834,-4.0839,-4.0853,-4.0877,-4.0893,-4.0916,-4.0969,-4.0971,-4.0994,-4.1002,-4.1008,-4.1014,-4.1042,-4.1052,-4.0943,-4.0943,-4.0943,0,0,-4.0746,-4.0756,-4.0775,-4.0807,-4.0817,-4.0846,-4.0812,-4.0844,-4.0865,-4.0838,-4.0879,-4.0884,-4.0897,-4.0946,-4.0967,-4.0951,-4.1045,-4.1014,-4.102,-4.1022,-4.1048,-4.1058,-4.1068,-4.0947,-4.0946,-4.0945,0,0,-4.0816,-4.0827,-4.0866,-4.0877,-4.0894,-4.0893,-4.0902,-4.0914,-4.0916,-4.0957,-4.0938,-4.0962,-4.1005,-4.1015,-4.1026,-4.1099,-4.1083,-4.1107,-4.1148,-4.1175,-4.1184,-4.1192,-4.1217,-4.1227,-4.1113,-4.1113,-4.1113,0,-4.0851,-4.0895,-4.0887,-4.0921,-4.0935,-4.0914,-4.0953,-4.0964,-4.0986,-4.0996,-4.0978,-4.103,-4.1038,-4.1088,-4.1106,-4.1116,-4.1126,-4.1105,-4.1184,-4.1191,-4.1198,-4.1222,-4.1232,-4.1115,-4.1115,-4.1115,-4.1115,0,-4.0937,-4.0968,-4.0997,-4.1021,-4.1038,-4.1074,-4.1071,-4.1089,-4.1081,-4.1081,-4.1122,-4.1131,-4.1155,-4.1166,-4.1158,-4.1215,-4.1205,-4.1186,-4.1153,-4.1211,-4.1234,-4.1243,-4.1119,-4.1118,-4.1118,-4.1117,0,0,-4.1031,-4.105,-4.1061,-4.1071,-4.1088,-4.1111,-4.1145,-4.1169,-4.1185,-4.1201,-4.1229,-4.1265,-4.1248,-4.126,-4.1252,-4.1277,-4.1334,-4.1254,-4.1254,-4.1268,-4.1397,-4.1411,-4.1422,-4.1323,-4.1325,-4.1326,-4.1395,0,-4.1101,-4.1162,-4.1156,-4.1214,-4.1242,-4.1222,-4.1252,-4.1264,-4.1266,-4.1289,-4.1289,-4.1315,-4.129,-4.1297,-4.132,-4.1322,-4.1359,-4.1317,-4.1348,-4.1349,-4.1345,-4.1434,-4.145,-4.1515,-4.1404,-4.1406,-4.1407,0,-4.1191,-4.1211,-4.1272,-4.1284,-4.1295,-4.1323,-4.1344,-4.1367,-4.138,-4.1379,-4.1393,-4.1382,-4.1415,-4.1382,-4.1427,-4.1399,-4.1411,-4.1414,-4.1416,-4.1418,-4.1382,-4.1439,-4.1535,-4.1545,-4.1421,-4.142,-4.1419,0,-4.1253,-4.1295,-4.1337,-4.1347,-4.1362,-4.1381,-4.1388,-4.14,-4.1415,-4.1433,-4.1442,-4.1464,-4.1476,-4.1492,-4.1486,-4.1463,-4.1533,-4.1499,-4.1532,-4.1532,-4.1548,-4.1547,-4.1647,-4.1556,-4.1556,-4.1556,-4.1556,0,-4.1331,-4.1369,-4.1366,-4.1391,-4.1433,-4.1425,-4.1466,-4.147,-4.1481,-4.1506,-4.1489,-4.1513,-4.1504,-4.1527,-4.1522,-4.156,-4.1565,-4.1565,-4.1563,-4.1566,-4.1567,-4.1574,-4.1569,-4.1558,-4.1558,-4.1557,-4.1557,0,-4.1408,-4.1407,-4.1451,-4.1462,-4.1466,-4.1496,-4.1504,-4.1528,-4.1528,-4.156,-4.1567,-4.1567,-4.1593,-4.1589,-4.1617,-4.1614,-4.1662,-4.1654,-4.1657,-4.1656,-4.1689,-4.1686,-4.1798,-4.1812,-4.1712,-4.1713,-4.1713,0,-4.1458,-4.1487,-4.1501,-4.1518,-4.1526,-4.1553,-4.1568,-4.1561,-4.1577,-4.1594,-4.1616,-4.1641,-4.166,-4.1703,-4.1704,-4.1726,-4.1719,-4.1756,-4.1722,-4.1724,-4.1719,-4.1717,-4.172,-4.1763,-4.1764,-4.1765,-4.1766,0,-4.1548,-4.1546,-4.1569,-4.1592,-4.1611,-4.1629,-4.1644,-4.1658,-4.1652,-4.1671,-4.1698,-4.1714,-4.1743,-4.1768,-4.1788,-4.1793,-4.1779,-4.1777,-4.1786,-4.1789,-4.179,-4.179,-4.1676,-4.1774,-4.1774,-4.1773,-4.1773,-4.1772,-4.1612,-4.1637,-4.1651,-4.1677,-4.1688,-4.1703,-4.1726,-4.1729,-4.1752,-4.1776,-4.177,-4.1801,-4.1812,-4.1838,-4.1846,-4.1869,-4.1855,-4.1867,-4.1871,-4.1874,-4.1878,-4.1786,-4.1873,-4.1872,-4.1872,-4.1872,-4.1872,0,-4.1701,-4.1708,-4.1733,-4.1756,-4.1776,-4.1762,-4.1778,-4.1796,-4.1823,-4.1836,-4.1856,-4.1886,-4.191,-4.1913,-4.1935,-4.1953,-4.1947,-4.1959,-4.1958,-4.1959,-4.1889,-4.188,-4.1964,-4.1964,-4.1964,-4.1964,-4.1964,-4.1964,-4.1749,-4.179,-4.1789,-4.1835,-4.1842,-4.1873,-4.1884,-4.1897,-4.1907,-4.1942,-4.1962,-4.1965,-4.1973,-4.1996,-4.2017,-4.2017,-4.2026,-4.2041,-4.2038,-4.1973,-4.1964,-4.1955,-4.1946,-4.2043,-4.2043,-4.2106,-4.2106,-4.2107]}]]